[[{"header":{"parameterUnit":"m.s-1","parameterCategory":1,"la1":30.2991,"la2":30.254,"lo1":-89.0895,"lo2":-89.0444,"dy":0.0017,"dx":0.0017,"nx":28,"ny":28,"refTime":"2025-12-19T03:00:00:Z","depth":0,"parameterNumber":2,"parameterNumberName":"U-component_of_WINDS"},"data":[0,0,0,0,0,0,0,0,0,0,0,0,0,0,0,0,0,0,0,0,0,0,0,0,0,0,0,0,0,0,0,0,0,0,0,0,0,0,0,0,0,0,0,0,0,0,0,0,0,0,0,0,0,0,0,0,0,0,0.0812,0.0812,0,0.0828,0.0828,0.0828,0.0838,0.0838,0.0838,0.0838,0.0854,0.0854,0.0855,0,0,0,0,0,0,0,0,0,0,0,0,0,0.0791,0.0791,0.0812,0.0812,0.0812,0.0828,0.0828,0.0828,0.0838,0.0838,0.0838,0.0838,0.0854,0.0854,0.0855,0,0,0,0,0,0,0,0,0,0,0,0,0,0.0802,0.0791,0.0812,0.0819,0.082,0.0828,0.0828,0.0828,0.0838,0.0838,0.0838,0.0838,0.0854,0.0854,0.0855,0.0857,0,0,0.0857,0.0857,0,0,0,0,0,0,0,0,0.0802,0.0803,0.0818,0.0819,0.082,0.0831,0.0826,0.0838,0.0838,0.0831,0.0838,0.0838,0.0846,0.0848,0.085,0.0858,0.0858,0.0857,0.0857,0.0857,0.0857,0,0,0,0,0,0,0,0.0801,0.0803,0.0818,0.0818,0.0819,0.0822,0.0823,0.0829,0.0838,0.0832,0.0832,0.0834,0.0847,0.085,0.0851,0.0858,0.0857,0.0857,0.0858,0.0858,0.0869,0.0869,0,0,0,0,0,0,0.0799,0.0802,0.0818,0.0819,0.0811,0.0822,0.0824,0.0827,0.0838,0.084,0.0834,0.0835,0.0849,0.085,0.0851,0.0855,0.0857,0.0858,0.0858,0.0869,0.0869,0.0869,0,0,0,0,0,0,0.0798,0.08,0.0817,0.081,0.0813,0.0822,0.0826,0.0828,0.083,0.084,0.0842,0.0835,0.0849,0.0851,0.0856,0.0855,0.0858,0.0859,0.0869,0.0869,0.0869,0.0861,0,0,0,0,0,0,0.0798,0.08,0.0801,0.081,0.0813,0.0821,0.0826,0.0828,0.0831,0.0832,0.0842,0.0843,0.0849,0.0855,0.0856,0.0856,0.0859,0.0869,0.0869,0.0869,0.0861,0.0861,0.086,0,0,0,0,0,0.0797,0.0797,0.0801,0.0802,0.0814,0.0821,0.0822,0.0829,0.0831,0.0832,0.0838,0.0843,0.0855,0.0855,0.0857,0.0857,0.0869,0.0869,0.0869,0.0862,0.0861,0.086,0,0,0,0,0,0,0.0787,0.0799,0.0802,0.0806,0.0812,0.0822,0.0824,0.0828,0.0834,0.0834,0.0843,0.0845,0.0849,0.0854,0.0853,0.086,0.0863,0.0863,0.0857,0.0856,0.0855,0.0854,0.0859,0,0,0,0,0,0.0785,0.079,0.08,0.0802,0.0805,0.0814,0.0817,0.0822,0.0829,0.0831,0.0838,0.0844,0.085,0.0853,0.0859,0.0862,0.0865,0.0863,0.0863,0.0862,0.0862,0.0865,0.0865,0.0869,0.0869,0.0869,0,0,0.0782,0.0789,0.0791,0.08,0.0806,0.081,0.0816,0.082,0.0824,0.0832,0.0837,0.0843,0.085,0.0855,0.0857,0.0859,0.0862,0.0862,0.0862,0.0862,0.0865,0.0865,0.0865,0.0869,0.0869,0.0869,0,0,0.0777,0.0783,0.0786,0.0792,0.08,0.0806,0.0807,0.0816,0.082,0.0826,0.0832,0.0837,0.0846,0.0851,0.0855,0.0854,0.0859,0.0856,0.0853,0.0855,0.0855,0.0855,0.0855,0.0855,0.0856,0.0856,0.0856,0,0.0772,0.0779,0.0787,0.0791,0.0795,0.0803,0.0807,0.0812,0.0821,0.0824,0.0826,0.0838,0.0844,0.085,0.085,0.0853,0.0854,0.0855,0.0855,0.0854,0.0854,0.0854,0.0854,0.0855,0.0856,0.0856,0.0856,0,0.0772,0.0777,0.0778,0.0788,0.0792,0.0796,0.0805,0.0808,0.0813,0.0819,0.0825,0.0832,0.084,0.0842,0.0846,0.0849,0.085,0.0853,0.0856,0.0853,0.0854,0.0854,0.0855,0.0855,0.0855,0.0855,0,0,0.0761,0.0776,0.0776,0.0781,0.0791,0.0795,0.08,0.0807,0.081,0.0817,0.0821,0.0829,0.0833,0.0837,0.0843,0.0845,0.0845,0.0848,0.0848,0.0847,0.0849,0.0846,0.0846,0.0848,0.0848,0.0848,0.0848,0,0.0758,0.0766,0.0774,0.078,0.0785,0.0793,0.0797,0.0804,0.081,0.0815,0.0822,0.0827,0.0831,0.0834,0.0837,0.0844,0.0845,0.0844,0.0852,0.0852,0.0849,0.0846,0.0843,0.0843,0.0848,0.0848,0.0848,0,0.0756,0.0763,0.0769,0.078,0.0782,0.0785,0.0794,0.0798,0.0807,0.0811,0.0817,0.0823,0.0828,0.0831,0.0839,0.0838,0.0842,0.0846,0.0846,0.0847,0.085,0.0847,0.0843,0.0843,0.0848,0.0848,0.0848,0,0.0748,0.0758,0.0764,0.0768,0.078,0.0782,0.0788,0.0796,0.0801,0.0808,0.0811,0.0819,0.0823,0.0829,0.0837,0.0838,0.0844,0.0847,0.0848,0.0848,0.0848,0.0848,0.0845,0.0851,0.0851,0.0851,0.0851,0,0.0744,0.0747,0.076,0.0763,0.0768,0.0777,0.0781,0.0787,0.0795,0.08,0.0808,0.0812,0.0822,0.0828,0.0835,0.0841,0.0842,0.0846,0.0848,0.0845,0.0845,0.0848,0.0848,0.0851,0.0851,0.0851,0.0851,0,0.0735,0.0744,0.075,0.0762,0.0765,0.0768,0.0778,0.0782,0.0788,0.0794,0.0796,0.0807,0.0814,0.0823,0.0833,0.0837,0.0843,0.0845,0.084,0.0841,0.0841,0.0841,0.0839,0.084,0.0845,0.0845,0.0845,0,0.0732,0.0735,0.0747,0.0751,0.0756,0.0762,0.0767,0.0777,0.0781,0.0792,0.0794,0.0802,0.0809,0.0821,0.0829,0.0837,0.084,0.0839,0.0841,0.0839,0.084,0.084,0.084,0.0838,0.0838,0.0838,0.0838,0,0.0726,0.073,0.0737,0.0745,0.0751,0.0758,0.0765,0.0768,0.0779,0.0784,0.0791,0.0797,0.0808,0.0816,0.0825,0.0831,0.0836,0.0837,0.0838,0.0835,0.0832,0.0834,0.0838,0.0837,0.0837,0.0837,0.0837,0.0837,0.072,0.0723,0.0732,0.074,0.0746,0.0753,0.0758,0.0765,0.0772,0.0781,0.0787,0.0795,0.0804,0.0817,0.0823,0.0829,0.0831,0.0832,0.0832,0.0832,0.0831,0.0831,0.0831,0.0831,0.0831,0.0831,0.0831,0,0.0714,0.0721,0.0727,0.0738,0.0744,0.0749,0.0757,0.0762,0.0769,0.0777,0.0784,0.0793,0.0801,0.0811,0.082,0.0823,0.0826,0.0825,0.0825,0.0826,0.0829,0.0828,0.0823,0.0823,0.0823,0.0823,0.0823,0.0823,0.0712,0.0718,0.0723,0.0733,0.074,0.0748,0.0752,0.0759,0.0766,0.0776,0.0783,0.0789,0.0798,0.0808,0.0816,0.0818,0.0821,0.082,0.0823,0.0825,0.0826,0.0827,0.0826,0.082,0.082,0.082,0.082,0.082]},{"header":{"parameterUnit":"m.s-1","parameterCategory":1,"la1":30.2991,"la2":30.254,"lo1":-89.0895,"lo2":-89.0444,"dy":0.0017,"dx":0.0017,"nx":28,"ny":28,"refTime":"2025-12-19T03:00:00:Z","depth":0,"parameterNumber":3,"parameterNumberName":"V-component_of_WINDS"},"data":[0,0,0,0,0,0,0,0,0,0,0,0,0,0,0,0,0,0,0,0,0,0,0,0,0,0,0,0,0,0,0,0,0,0,0,0,0,0,0,0,0,0,0,0,0,0,0,0,0,0,0,0,0,0,0,0,0,0,-3.6161,-3.6162,0,-3.6228,-3.6229,-3.6229,-3.6231,-3.623,-3.6229,-3.6228,-3.6291,-3.6294,-3.6296,0,0,0,0,0,0,0,0,0,0,0,0,0,-3.6031,-3.6034,-3.6161,-3.6162,-3.6163,-3.6228,-3.6229,-3.623,-3.6231,-3.623,-3.6229,-3.6228,-3.6291,-3.6293,-3.6296,0,0,0,0,0,0,0,0,0,0,0,0,0,-3.6092,-3.6035,-3.6161,-3.6171,-3.6173,-3.6228,-3.6229,-3.623,-3.6231,-3.623,-3.6229,-3.6228,-3.629,-3.6293,-3.6297,-3.6344,0,0,-3.6308,-3.6309,0,0,0,0,0,0,0,0,-3.6088,-3.6096,-3.6169,-3.6171,-3.6173,-3.622,-3.6206,-3.6268,-3.6231,-3.6209,-3.6228,-3.6227,-3.6268,-3.6274,-3.6289,-3.6347,-3.6349,-3.6308,-3.631,-3.6312,-3.6313,0,0,0,0,0,0,0,-3.6084,-3.6094,-3.6187,-3.617,-3.6172,-3.6172,-3.6179,-3.6218,-3.6244,-3.6211,-3.6211,-3.6219,-3.6269,-3.6285,-3.629,-3.635,-3.6308,-3.6311,-3.6314,-3.6315,-3.6453,-3.6454,0,0,0,0,0,0,-3.6078,-3.609,-3.6185,-3.6189,-3.6127,-3.6175,-3.6183,-3.6206,-3.6244,-3.6249,-3.622,-3.6219,-3.6279,-3.6286,-3.6292,-3.6352,-3.6312,-3.6315,-3.6317,-3.6452,-3.6453,-3.6455,0,0,0,0,0,0,-3.6076,-3.6087,-3.6183,-3.614,-3.6152,-3.6179,-3.6204,-3.6208,-3.6224,-3.6251,-3.6256,-3.6232,-3.6279,-3.6287,-3.6332,-3.6354,-3.6317,-3.632,-3.645,-3.6452,-3.6454,-3.6471,0,0,0,0,0,0,-3.6072,-3.6086,-3.6105,-3.614,-3.6154,-3.6222,-3.6205,-3.621,-3.6231,-3.623,-3.6264,-3.6268,-3.6278,-3.6327,-3.6336,-3.6359,-3.6323,-3.6448,-3.6451,-3.6453,-3.6468,-3.6473,-3.6477,0,0,0,0,0,-3.6067,-3.6105,-3.6106,-3.6117,-3.6179,-3.6223,-3.6231,-3.6244,-3.6233,-3.6252,-3.627,-3.6267,-3.635,-3.6331,-3.6341,-3.6366,-3.6447,-3.645,-3.6453,-3.6466,-3.6472,-3.6477,0,0,0,0,0,0,-3.6068,-3.6109,-3.6111,-3.6161,-3.6189,-3.6224,-3.6248,-3.625,-3.628,-3.6278,-3.6291,-3.6298,-3.6344,-3.6359,-3.6337,-3.6414,-3.6397,-3.6402,-3.6403,-3.6409,-3.6413,-3.6409,-3.6326,0,0,0,0,0,-3.6075,-3.6109,-3.6143,-3.6184,-3.6198,-3.6221,-3.624,-3.6249,-3.6277,-3.6288,-3.6309,-3.6336,-3.6368,-3.6389,-3.642,-3.647,-3.6478,-3.6492,-3.6497,-3.65,-3.6505,-3.6535,-3.6542,-3.6466,-3.6466,-3.6466,0,0,-3.6087,-3.6114,-3.6135,-3.6185,-3.6207,-3.6242,-3.623,-3.6267,-3.6293,-3.6293,-3.6338,-3.6355,-3.6385,-3.6434,-3.6456,-3.6447,-3.6528,-3.6504,-3.6507,-3.651,-3.6539,-3.6546,-3.6553,-3.6468,-3.6468,-3.6467,0,0,-3.6129,-3.6152,-3.6191,-3.6215,-3.625,-3.6265,-3.6275,-3.631,-3.6322,-3.6367,-3.6369,-3.6399,-3.6454,-3.6477,-3.6496,-3.6549,-3.6549,-3.6559,-3.6583,-3.6612,-3.6618,-3.6623,-3.6644,-3.6651,-3.6563,-3.6563,-3.6563,0,-3.614,-3.6194,-3.6209,-3.6248,-3.627,-3.6275,-3.6314,-3.6336,-3.6379,-3.6394,-3.6384,-3.6456,-3.6476,-3.6532,-3.6545,-3.6559,-3.6571,-3.6555,-3.6616,-3.6622,-3.6627,-3.6647,-3.6655,-3.6565,-3.6564,-3.6564,-3.6564,0,-3.6207,-3.6245,-3.6271,-3.6316,-3.6341,-3.6379,-3.64,-3.6424,-3.643,-3.6446,-3.6493,-3.6519,-3.6557,-3.657,-3.6575,-3.6626,-3.6621,-3.6613,-3.6596,-3.6635,-3.6654,-3.6662,-3.6566,-3.6566,-3.6566,-3.6565,0,0,-3.6249,-3.6305,-3.6315,-3.6337,-3.6378,-3.6406,-3.6445,-3.6485,-3.6505,-3.6535,-3.6568,-3.6616,-3.6611,-3.6632,-3.664,-3.6665,-3.6709,-3.6655,-3.6656,-3.6666,-3.6769,-3.6776,-3.6785,-3.6708,-3.671,-3.6711,-3.6768,0,-3.6297,-3.6369,-3.6385,-3.6446,-3.6482,-3.6489,-3.6522,-3.6551,-3.6567,-3.6599,-3.6616,-3.6652,-3.6641,-3.6654,-3.6679,-3.6698,-3.673,-3.6694,-3.674,-3.6741,-3.6734,-3.6794,-3.6801,-3.6853,-3.6775,-3.6776,-3.6777,0,-3.6362,-3.6397,-3.6463,-3.6502,-3.6518,-3.6548,-3.6587,-3.6618,-3.665,-3.6661,-3.6686,-3.6692,-3.6733,-3.6713,-3.6769,-3.6745,-3.6764,-3.6776,-3.6779,-3.6784,-3.6762,-3.6803,-3.6869,-3.6878,-3.6789,-3.6788,-3.6787,0,-3.6389,-3.6453,-3.6501,-3.6519,-3.6565,-3.6587,-3.6607,-3.6639,-3.6662,-3.6696,-3.6711,-3.6748,-3.6768,-3.6796,-3.6812,-3.6796,-3.6867,-3.6848,-3.6877,-3.6877,-3.6893,-3.6892,-3.6965,-3.6903,-3.6902,-3.6902,-3.6902,0,-3.6442,-3.6482,-3.6515,-3.6544,-3.659,-3.6608,-3.6653,-3.6672,-3.6701,-3.6734,-3.674,-3.6771,-3.679,-3.6823,-3.6835,-3.6881,-3.6889,-3.6899,-3.6902,-3.6899,-3.6898,-3.6913,-3.691,-3.6904,-3.6904,-3.6903,-3.6903,0,-3.648,-3.6503,-3.6557,-3.6598,-3.6609,-3.6641,-3.6676,-3.6705,-3.6722,-3.6765,-3.6775,-3.6802,-3.6842,-3.6861,-3.6909,-3.6917,-3.697,-3.6969,-3.696,-3.6961,-3.699,-3.6988,-3.7076,-3.7089,-3.7017,-3.7018,-3.7018,0,-3.6512,-3.6544,-3.659,-3.6615,-3.6636,-3.6674,-3.67,-3.6719,-3.6745,-3.6786,-3.681,-3.6851,-3.6885,-3.6948,-3.6971,-3.7009,-3.701,-3.7039,-3.7016,-3.7013,-3.7013,-3.7012,-3.7016,-3.7043,-3.7044,-3.7044,-3.7045,0,-3.6568,-3.658,-3.6617,-3.666,-3.6691,-3.6724,-3.6757,-3.6776,-3.68,-3.6829,-3.6872,-3.6898,-3.695,-3.699,-3.703,-3.7049,-3.7051,-3.7052,-3.7061,-3.7059,-3.7053,-3.7059,-3.6973,-3.705,-3.7049,-3.7049,-3.7049,-3.7048,-3.6606,-3.6636,-3.6674,-3.6716,-3.6744,-3.6775,-3.6806,-3.6829,-3.6866,-3.6911,-3.6919,-3.6965,-3.6998,-3.7053,-3.7073,-3.7109,-3.7102,-3.7114,-3.7118,-3.7121,-3.7124,-3.7047,-3.7116,-3.7115,-3.7115,-3.7115,-3.7115,0,-3.6664,-3.669,-3.6729,-3.6777,-3.681,-3.6812,-3.6849,-3.6877,-3.6918,-3.695,-3.6985,-3.7034,-3.7075,-3.7102,-3.7143,-3.7166,-3.7168,-3.7176,-3.7175,-3.718,-3.7127,-3.7116,-3.7174,-3.7174,-3.7174,-3.7174,-3.7174,-3.7174,-3.6699,-3.6751,-3.6766,-3.6832,-3.6857,-3.6904,-3.6926,-3.6955,-3.6981,-3.7038,-3.7073,-3.7091,-3.7121,-3.7165,-3.7202,-3.7209,-3.7224,-3.7233,-3.724,-3.7189,-3.7183,-3.7178,-3.7168,-3.7236,-3.7236,-3.7291,-3.7291,-3.7291]}]]